COSMOS 1275 DEB, 39947

Orbit data source: Space-Track

COSMOS 1275 DEB, 39947 is space debris in LEO originally from a launch on Thu, 04 Jun 1981 UTC launched from the Plesetsk Missile And Space Complex (PKMTR). Debris objects in space refer to the collection of defunct objects orbiting the Earth. Examples of debris include non-operational satellites, rocket bodies, and fragments generated from explosions, collisions, or faulty payload assembly.

Loading next visibility...
Identifier
39947, 1981-053NH
Orbit
LEO
Country
Flag of CISCIS
Related business
Manufacturer
Unknown
Mission
Spacecraft
Bus & Motor
Unknown
Mass
Unknown
Launch date (UTC)
1981-06-04 (45 years ago)
Launch vehicle
Unknown
Launch site
Plesetsk Missile And Space Complex (PKMTR)
Object type
Payload
Rocket body
Debris
Shape & HBR
Unknown shape, 0.1 m
Radar Cross Section
Small (<0.1 m²)

Expand to show TLE details & history
Last TLE update: 3 weeks ago

TLE from 3 weeks ago
0 COSMOS 1275 DEB
1 39947U 81053NH  26155.80850874  .00000926  00000-0  10119-2 0  9999
2 39947  83.0152 340.7051 0115811 272.1886 149.1274 13.68805511596459
Epoch: 2026-06-04T19:24Z
TLE epoch observation values (Epoch: 2026-06-04T19:24:15.155Z)
Latitude
61.28961°
Longitude
169.25262°
Altitude
1,087.988 km
Speed
7.277 km/s
True Right ascension
23h 34m 15s
True Declination
61° 09' 03"
Sunlit
Object was in daylight at epoch
Visualization orbit readout
Latitude
Unknown
Longitude
Unknown
Altitude
Unknown
Speed
Unknown
Apparent Right ascension
Unknown
Apparent Declination
Unknown
Sunlit
N/A
Visualization observer readout
Local Sidereal Time
06:04:48
Azimuth
Unknown
Elevation
Unknown
Doppler factor
Unknown
Orbital elements
Apogee altitude
1,086.475 km
Perigee altitude
915.558 km
Semi-major axis
7,379.154 km
Eccentricity
0.01158
Inclination
83.0152°
RAAN
340.7051°
Arg. of periapsis
272.1886°
True anomaly
149.8°
Mean anomaly
149.1274°
Eccentric anomaly
149.46453°
Mean motion
3.424 °/min
Orbital period
105.14 mins
BSTAR
0.0010119
Loading maneuver chart data...
Computing Atmospheric mass density...
Loading historical data...
Loading historical data...
Loading historical data...
Loading historical data...
Loading historical data...
Loading historical data...
Loading historical data...

Documentation

Showing up to 5 results
|